Wind_Speed
15 15 15 15 15 15 15 15 15 15 15 15 14 14 14 15 15 15 15 16 16 16 16 16 15 15 14 14 14 14 15 15 15 15 15 15 16 16 16 16 17 17 17
16 16 16 16 16 16 16 16 15 15 16 16 16 16 16 17 17 16 16 17 17 17 17 16 16 15 16 16 16 16 16 16 16 16 17 17 18 18 18 17 17 18 18
17 17 17 18 17 17 17 17 17 17 17 17 17 17 17 18 17 17 17 18 18 18 18 18 18 18 17 17 17 18 18 18 18 19 19 19 19 19 19 19 18 18 18
18 18 18 18 19 19 19 19 19 19 19 19 19 18 18 18 19 18 18 19 20 20 20 19 19 19 19 19 19 20 20 21 20 21 20 20 21 20 19 19 18 18 18
20 20 20 20 21 21 21 21 20 20 20 20 20 20 20 20 20 20 20 20 21 21 21 21 20 20 21 21 21 21 21 22 22 22 22 21 21 21 20 20 19 19 20
22 22 22 22 23 23 23 22 21 21 21 21 21 21 21 21 22 22 22 22 22 22 23 22 22 22 22 22 22 22 23 23 23 22 21 21 21 22 21 21 21 21 20
24 24 24 24 24 23 23 22 22 22 22 22 21 22 22 23 22 22 23 23 22 23 23 23 23 23 23 22 22 22 22 22 23 23 22 22 22 22 22 22 22 22 22
25 25 25 25 25 24 23 23 23 23 23 22 22 22 23 23 22 23 23 23 23 24 25 25 24 24 24 23 23 23 23 23 23 23 23 23 23 23 23 23 24 24 24
26 26 26 27 26 26 25 24 23 24 23 23 23 23 23 23 23 23 24 24 24 25 25 25 25 24 24 24 24 23 23 23 24 24 24 24 24 24 24 24 24 24 24
27 27 27 27 27 26 26 24 24 25 24 24 24 24 24 23 23 24 24 25 25 26 26 25 25 24 23 23 24 24 23 24 24 25 25 25 25 25 25 25 25 25 25
28 27 27 27 27 26 25 25 26 25 25 25 25 25 24 24 24 24 25 26 26 26 26 26 24 23 23 24 24 23 23 24 24 25 25 25 25 25 25 25 25 25 25
28 27 27 27 27 27 27 27 27 26 26 26 25 25 25 25 25 26 27 27 26 25 25 25 24 24 24 24 24 24 24 24 23 24 24 25 25 25 25 24 25 25 25
28 28 28 27 27 27 27 27 27 26 26 26 26 26 26 26 27 27 27 26 25 25 25 25 25 25 25 25 25 25 25 25 24 24 25 25 25 25 25 25 25 25 25
28 28 27 27 27 28 28 27 27 27 27 28 28 27 26 25 26 27 27 27 27 27 26 26 26 26 26 26 26 26 26 26 25 25 25 26 26 26 25 26 26 25 25
29 28 27 27 26 27 27 27 27 28 28 29 27 26 26 25 25 26 27 27 27 27 27 27 26 27 27 27 27 27 27 26 27 27 27 26 27 27 26 26 26 26 26
29 28 28 27 27 27 27 27 27 27 28 28 27 27 26 26 26 27 26 26 26 27 27 27 26 27 27 27 27 27 27 27 27 27 27 27 27 27 27 27 26 26 26
30 29 28 28 28 28 29 29 29 28 28 27 27 26 26 26 26 26 26 26 27 27 27 27 28 28 28 28 27 27 27 27 27 27 27 27 27 26 26 26 26 27 26
30 29 28 28 28 29 29 30 30 29 28 27 27 26 26 26 26 26 26 27 27 27 28 28 28 28 28 28 27 27 27 27 26 26 26 25 25 25 26 26 26 25 24
30 29 29 29 29 29 30 30 29 28 27 27 26 26 26 26 26 27 27 27 27 27 28 29 29 29 29 28 27 27 27 27 27 26 26 26 26 27 27 26 26 25 25
29 29 30 30 30 29 29 28 28 27 26 26 26 26 26 27 27 28 28 27 27 28 28 29 28 28 28 28 28 28 27 27 27 27 27 26 27 27 27 26 25 25 24
29 30 30 30 29 29 28 29 28 28 27 26 26 26 27 27 27 26 26 27 27 28 28 28 28 28 28 28 28 29 28 28 28 27 27 26 26 26 26 25 25 24 24
30 30 30 29 29 29 29 29 28 28 28 28 27 27 27 27 27 27 27 28 28 28 28 28 28 28 28 28 29 28 28 28 28 27 26 26 26 26 25 25 24 23 23
29 29 29 28 28 28 28 27 27 27 27 27 27 27 27 26 27 27 28 29 28 28 28 28 28 29 29 29 28 28 28 27 27 27 27 26 26 26 25 24 23 23 23
29 29 28 27 27 27 27 26 26 26 26 27 27 27 27 27 27 27 28 28 28 27 27 27 27 28 27 27 26 27 28 28 27 27 27 26 25 25 24 23 23 23 23
28 27 27 28 28 27 27 27 27 27 28 28 27 27 27 27 28 28 28 28 28 28 28 28 27 26 26 26 27 28 28 28 27 27 27 26 25 24 23 23 23 23 22
25 25 26 26 26 25 25 26 26 27 27 27 27 27 27 27 28 28 28 28 28 28 28 28 28 27 27 27 26 26 27 27 27 27 27 26 24 24 23 23 22 22 22
Wind_Direction
292 291 292 295 296 297 300 302 302 302 302 304 306 309 310 308 308 310 312 313 313 312 308 304 302 300 300 302 304 305 306 306 305 305 304 306 306 306 305 303 300 299 300
288 289 290 293 292 293 296 299 299 300 301 302 303 303 305 307 306 307 309 311 312 312 309 306 304 301 299 298 298 299 301 301 302 302 302 301 302 304 304 304 302 300 298
287 287 289 290 290 290 294 295 296 296 297 299 301 302 303 304 303 303 305 307 311 310 308 306 304 301 299 298 296 295 296 297 299 301 301 300 298 300 300 300 300 300 299
285 285 285 286 288 289 290 292 292 291 292 296 298 298 300 301 300 300 302 303 305 307 306 303 302 301 300 300 297 294 294 295 297 298 298 298 296 296 297 297 297 297 296
284 283 282 282 284 287 287 289 289 290 291 293 294 294 297 297 297 297 299 299 301 303 304 301 300 300 299 297 297 292 291 293 295 296 296 295 294 293 294 294 295 295 295
284 283 282 282 283 285 286 288 288 289 289 290 290 291 294 295 295 295 296 297 299 300 301 302 301 299 298 295 295 293 292 292 294 296 297 298 296 293 292 292 292 292 293
283 282 282 283 284 286 287 287 288 289 289 289 289 290 291 294 295 296 297 296 298 300 300 299 299 301 299 298 298 297 296 296 295 294 294 295 296 294 291 291 291 291 292
282 281 281 281 282 283 284 286 287 289 288 288 289 290 291 292 293 295 295 295 296 298 300 299 297 298 298 297 297 297 296 296 296 295 294 294 296 297 292 289 289 289 289
280 280 280 281 282 282 282 285 287 288 288 288 289 289 291 291 291 293 294 294 296 298 300 299 298 297 296 295 295 296 296 295 294 294 293 293 294 294 293 291 289 288 287
278 278 279 281 282 283 282 283 285 285 286 287 288 289 291 290 290 291 292 293 295 297 298 299 298 297 295 294 294 294 295 296 295 293 292 292 292 291 290 291 292 290 289
277 276 278 278 279 280 280 282 283 283 283 284 285 287 288 288 289 291 292 293 294 296 297 297 298 299 297 295 294 294 295 297 296 293 293 293 293 293 292 292 293 293 293
276 276 276 276 276 275 276 279 280 280 280 281 283 285 286 287 289 291 293 294 293 294 296 296 297 297 298 297 296 296 296 296 295 294 293 293 293 293 293 293 292 293 294
279 278 277 275 276 276 275 276 278 278 279 280 282 284 284 287 288 288 290 292 292 292 294 295 295 296 296 297 298 297 297 297 296 296 296 295 294 293 292 293 292 293 294
283 282 279 276 277 276 274 275 278 279 280 283 282 282 283 284 285 285 286 289 291 291 291 291 292 293 294 294 295 296 297 298 298 297 296 295 295 294 292 293 294 294 293
282 282 279 278 277 275 275 274 276 278 281 281 281 280 281 282 284 286 287 288 288 290 291 290 291 292 294 296 297 295 295 296 297 296 295 295 294 294 292 291 292 293 293
282 282 282 281 280 278 277 276 276 278 278 282 281 280 281 283 285 287 288 288 288 289 289 290 291 292 294 295 296 298 297 297 297 297 295 295 295 294 292 292 293 294 293
281 281 281 280 279 279 278 277 278 279 279 280 280 283 284 285 287 288 288 287 288 289 290 291 292 292 293 294 295 297 297 297 298 299 297 296 296 296 295 295 294 295 294
279 279 278 278 279 278 278 280 280 280 279 277 278 280 282 285 287 288 288 289 289 290 291 293 293 293 293 294 295 296 297 297 297 298 297 296 294 295 295 294 294 294 294
278 278 278 277 277 278 279 280 281 281 280 278 278 278 280 283 285 286 288 290 291 292 292 293 293 292 292 293 295 296 297 298 298 297 296 295 295 295 294 293 292 293 294
277 277 278 277 277 278 279 279 280 281 280 280 279 279 279 281 284 285 287 289 291 292 293 294 294 294 295 295 295 294 295 295 296 296 295 295 296 297 295 293 294 294 294
275 276 277 277 277 278 279 279 279 279 279 277 278 279 281 283 285 286 287 289 291 292 293 293 294 294 294 295 295 296 297 296 295 295 295 295 295 296 296 295 295 295 293
275 276 276 277 277 276 276 277 278 278 277 277 278 279 281 283 285 287 289 290 291 292 292 292 292 292 293 293 293 293 294 295 296 296 295 295 295 295 295 295 295 294 294
274 274 274 275 276 275 275 276 276 278 278 278 279 279 280 282 285 287 289 290 290 290 291 292 292 290 290 291 292 292 293 295 296 295 293 294 295 294 294 294 294 293 294
274 274 274 274 275 275 274 275 276 278 279 279 280 281 282 283 284 287 289 289 290 291 292 293 292 292 292 291 289 290 291 294 295 294 292 293 294 294 293 293 293 293 292
275 275 274 273 274 275 275 277 278 277 277 279 279 281 282 283 285 287 288 290 291 292 292 293 292 292 292 292 289 288 290 291 293 293 292 291 291 291 291 292 292 291 291
275 275 276 276 276 276 278 279 277 277 278 279 280 281 282 284 285 287 288 289 291 291 291 290 290 290 290 291 291 290 291 290 290 290 290 289 288 288 288 289 291 291 289
Height
5872 5871 5870 5869 5869 5868 5867 5867 5866 5865 5864 5863 5862 5861 5860 5859 5857 5856 5854 5853 5851 5849 5848 5846 5845 5844 5843 5842 5841 5840 5838 5837 5836 5835 5834 5832 5831 5830 5828 5827 5825 5824 5823
5868 5867 5867 5866 5865 5865 5864 5863 5863 5862 5861 5860 5859 5858 5857 5855 5854 5852 5851 5849 5848 5846 5844 5842 5841 5840 5839 5838 5837 5836 5835 5833 5832 5831 5830 5828 5827 5826 5824 5823 5821 5820 5819
5864 5863 5863 5862 5861 5861 5860 5860 5859 5858 5857 5857 5855 5854 5853 5851 5850 5849 5847 5846 5844 5842 5840 5839 5837 5836 5835 5834 5833 5831 5830 5829 5828 5827 5825 5824 5822 5821 5819 5818 5816 5815 5814
5860 5859 5859 5858 5857 5856 5856 5855 5855 5854 5853 5852 5851 5850 5849 5848 5846 5845 5843 5842 5840 5838 5837 5835 5833 5831 5830 5829 5828 5827 5825 5824 5823 5822 5820 5819 5817 5816 5814 5813 5811 5810 5808
5855 5854 5854 5853 5852 5852 5851 5850 5850 5849 5849 5848 5847 5846 5845 5843 5842 5841 5839 5837 5836 5834 5832 5830 5828 5827 5825 5824 5822 5821 5820 5819 5817 5816 5815 5813 5812 5810 5809 5807 5806 5805 5803
5849 5849 5848 5847 5847 5846 5846 5845 5844 5844 5843 5843 5842 5841 5840 5838 5837 5836 5834 5832 5831 5829 5827 5825 5823 5822 5820 5818 5816 5815 5814 5813 5811 5810 5808 5807 5806 5804 5803 5801 5800 5799 5798
5843 5843 5842 5841 5841 5840 5840 5839 5839 5838 5838 5837 5837 5836 5835 5833 5832 5830 5829 5827 5826 5824 5822 5820 5818 5816 5814 5812 5810 5809 5807 5806 5805 5803 5802 5801 5800 5798 5797 5795 5793 5792 5791
5837 5836 5836 5835 5835 5834 5834 5833 5833 5832 5832 5831 5831 5830 5829 5828 5826 5825 5823 5822 5820 5819 5817 5814 5812 5810 5808 5806 5805 5803 5801 5800 5798 5797 5796 5794 5793 5791 5790 5788 5787 5786 5784
5830 5829 5828 5828 5828 5827 5827 5827 5827 5826 5826 5825 5825 5824 5823 5822 5821 5819 5818 5816 5814 5812 5810 5808 5806 5804 5802 5800 5798 5797 5795 5794 5792 5790 5789 5788 5786 5785 5783 5781 5780 5779 5778
5823 5822 5821 5821 5821 5820 5820 5820 5820 5819 5819 5819 5818 5817 5817 5815 5814 5813 5811 5810 5808 5806 5804 5802 5799 5797 5796 5794 5792 5790 5789 5787 5785 5784 5782 5781 5779 5777 5776 5774 5773 5771 5770
5815 5815 5814 5814 5813 5813 5813 5813 5813 5812 5812 5812 5811 5811 5810 5809 5808 5806 5805 5803 5801 5799 5798 5796 5793 5791 5789 5787 5785 5783 5782 5780 5779 5777 5775 5773 5772 5770 5768 5766 5765 5763 5762
5808 5807 5807 5806 5806 5805 5806 5806 5806 5805 5805 5805 5804 5803 5803 5802 5801 5799 5798 5796 5794 5793 5791 5789 5787 5785 5783 5781 5779 5777 5775 5773 5771 5769 5768 5766 5764 5763 5761 5759 5757 5755 5753
5800 5800 5800 5799 5798 5798 5798 5799 5799 5798 5798 5797 5797 5796 5796 5795 5794 5792 5790 5789 5788 5786 5784 5783 5781 5779 5777 5775 5773 5770 5768 5766 5764 5763 5761 5759 5757 5755 5753 5752 5750 5748 5746
5794 5793 5792 5792 5791 5791 5791 5791 5791 5790 5790 5789 5789 5788 5788 5787 5786 5784 5783 5782 5781 5779 5777 5776 5774 5772 5770 5768 5766 5764 5762 5759 5757 5755 5753 5751 5749 5747 5746 5744 5742 5740 5738
5787 5786 5785 5784 5784 5784 5784 5783 5783 5783 5782 5781 5780 5779 5779 5779 5778 5776 5775 5774 5773 5771 5770 5769 5767 5765 5763 5761 5759 5757 5754 5752 5750 5748 5746 5744 5742 5740 5738 5736 5734 5732 5731
5778 5778 5777 5776 5776 5776 5776 5775 5775 5775 5774 5773 5772 5772 5771 5770 5769 5768 5767 5766 5765 5763 5762 5761 5759 5758 5756 5753 5751 5749 5746 5744 5742 5740 5738 5736 5734 5732 5730 5728 5726 5725 5722
5770 5769 5769 5768 5768 5767 5767 5767 5767 5767 5766 5765 5765 5764 5763 5762 5761 5761 5759 5758 5757 5756 5754 5753 5751 5749 5748 5745 5743 5741 5739 5736 5734 5732 5730 5728 5726 5724 5722 5720 5718 5717 5714
5761 5761 5760 5760 5759 5759 5759 5759 5758 5758 5758 5757 5757 5756 5756 5755 5754 5753 5752 5751 5749 5748 5746 5744 5743 5741 5739 5737 5735 5733 5731 5729 5726 5724 5722 5720 5718 5716 5714 5712 5711 5709 5707
5752 5752 5752 5751 5751 5751 5750 5750 5749 5748 5748 5748 5749 5748 5748 5747 5746 5745 5744 5743 5741 5740 5738 5736 5734 5733 5731 5729 5727 5725 5723 5721 5719 5717 5715 5713 5711 5709 5707 5705 5703 5701 5699
5744 5743 5743 5743 5742 5742 5741 5741 5741 5740 5740 5739 5740 5740 5739 5739 5738 5737 5736 5734 5733 5732 5730 5728 5726 5724 5723 5721 5719 5717 5715 5713 5711 5709 5707 5705 5703 5701 5699 5697 5695 5693 5692
5735 5735 5734 5734 5733 5733 5733 5732 5732 5732 5732 5731 5731 5731 5731 5730 5730 5729 5728 5726 5725 5723 5722 5720 5718 5716 5715 5713 5711 5710 5707 5705 5703 5701 5700 5698 5696 5694 5692 5690 5688 5686 5684
5726 5726 5725 5725 5724 5724 5723 5723 5723 5723 5723 5723 5723 5723 5722 5722 5721 5720 5720 5718 5717 5715 5713 5712 5710 5709 5707 5705 5704 5702 5700 5698 5696 5694 5692 5690 5688 5686 5684 5682 5680 5679 5677
5716 5716 5716 5716 5715 5715 5715 5715 5715 5715 5715 5715 5714 5714 5713 5713 5713 5712 5711 5710 5708 5707 5705 5703 5701 5700 5698 5697 5695 5693 5692 5690 5688 5686 5684 5682 5680 5679 5677 5675 5673 5672 5670
5707 5707 5707 5707 5707 5706 5706 5706 5706 5706 5706 5706 5706 5705 5705 5705 5704 5703 5702 5701 5700 5698 5697 5695 5693 5691 5690 5688 5687 5685 5683 5681 5680 5678 5676 5674 5673 5671 5669 5668 5666 5664 5662
5698 5698 5698 5698 5698 5698 5698 5698 5698 5697 5697 5697 5696 5696 5696 5696 5695 5694 5693 5692 5691 5690 5688 5686 5685 5683 5682 5680 5678 5677 5675 5673 5671 5670 5668 5667 5665 5664 5662 5661 5659 5657 5655
5690 5690 5690 5690 5689 5689 5689 5689 5689 5689 5689 5688 5688 5688 5688 5687 5686 5685 5684 5683 5682 5681 5679 5678 5676 5675 5673 5672 5670 5668 5667 5665 5663 5662 5660 5659 5658 5657 5655 5654 5652 5650 5649